Waarnemingen

Advertentie
Mijn weer
Perpignan, Frankrijk (7747): temperatuur & dauwpunt: 20.04.2017 06:00:00 - 26.04.2017 06:00:00 (CEST)Perpignan, Frankrijk (7747): temperatuur 5cm: 20.04.2017 06:00:00 - 26.04.2017 06:00:00 (CEST)Perpignan, Frankrijk (7747): temperatuur -20cm & temperatuur -100cm: 20.04.2017 06:00:00 - 26.04.2017 06:00:00 (CEST)Perpignan, Frankrijk (7747): windsnelheid & windstoten: 20.04.2017 06:00:00 - 26.04.2017 06:00:00 (CEST)Perpignan, Frankrijk (7747): windrichting: 20.04.2017 06:00:00 - 26.04.2017 06:00:00 (CEST)Perpignan, Frankrijk (7747): luchtdruk: 20.04.2017 06:00:00 - 26.04.2017 06:00:00 (CEST)Perpignan, Frankrijk (7747): zicht: 20.04.2017 06:00:00 - 26.04.2017 06:00:00 (CEST)Perpignan, Frankrijk (7747): Zonneschijnduur: 20.04.2017 06:00:00 - 26.04.2017 06:00:00 (CEST)Perpignan, Frankrijk (7747): neerslag: 20.04.2017 06:00:00 - 26.04.2017 06:00:00 (CEST)
Datum & Tijd tt [°C] td [°C] tt 5cm [°C] tt -20cm [°C] tt -100cm [°C] ff [km/u] ff [kn] fx [km/u] fx [kn] dd ppp [hPa] vv [km] sd [min] rr [mm]
26.04.2017 06:00:00 11,6 9,0 11,4 19,0 17,3 0 0 9 5 N 1007,6 60 0 0,0
26.04.2017 05:00:00 11,8 9,4 11,0 19,3 17,3 3 1 18 10 NNW 1007,3 24 0 1,0
26.04.2017 04:00:00 12,1 9,5 11,1 19,5 17,3 10 5 23 12 N 1007,4 10 0 2,2
26.04.2017 03:00:00 13,0 8,9 11,1 19,6 17,3 17 9 28 15 NW 1006,8 30 0 0,2
26.04.2017 02:00:00 13,3 8,6 11,4 19,8 17,3 16 9 37 20 NW 1007,5 51 0 0,2
26.04.2017 01:00:00 14,1 9,3 12,2 20,0 17,3 19 11 39 21 WNW 1007,5 60 0 0,4
26.04.2017 00:00:00 14,1 10,5 12,7 20,1 17,2 22 12 42 23 WNW 1007,4 18 0 0,2
25.04.2017 23:00:00 16,1 13,0 14,7 20,3 17,2 10 6 18 10 NNW 1006,9 20 0 0,2
25.04.2017 22:00:00 16,3 11,9 15,7 20,3 17,2 5 3 14 8 N 1006,0 39 0 0,0
25.04.2017 21:00:00 16,7 11,8 16,4 20,4 17,3 11 6 22 12 NNW 1005,3 42 0 0,0
25.04.2017 20:00:00 17,3 11,6 17,7 20,4 17,2 16 9 26 14 NNW 1005,1 37 0 0,0
25.04.2017 19:00:00 18,8 9,0 21,5 20,2 17,2 9 5 18 10 NNO 1004,7 50 10 0,0
25.04.2017 18:00:00 18,3 11,4 21,2 20,0 17,2 15 8 28 15 NO 1004,9 20 7 0,0
25.04.2017 17:00:00 19,4 10,9 23,3 19,8 17,2 20 11 27 15 ONO 1005,4 39 16 0,0
25.04.2017 16:00:00 19,2 11,0 24,3 19,3 17,2 14 8 26 14 ONO 1006,4 41 23 0,0
25.04.2017 15:00:00 19,7 11,2 29,1 18,8 17,2 14 8 28 15 ONO 1006,9 20 55 0,0
25.04.2017 14:00:00 19,5 12,0 30,5 18,5 17,2 16 9 25 13 ONO 1007,7 39 60 0,0
25.04.2017 13:00:00 18,7 11,0 26,6 18,2 17,2 6 3 21 12 O 1009,0 35 50 0,0
25.04.2017 12:00:00 17,4 11,2 27,5 18,0 17,2 9 5 17 9 NO 1009,8 33 47 0,0
25.04.2017 11:00:00 16,5 11,8 19,6 17,9 17,2 9 5 16 9 NO 1010,4 26 21 0,0
25.04.2017 10:00:00 15,4 11,8 17,1 18,0 17,2 5 3 10 5 NO 1010,4 20 10 0,0
25.04.2017 09:00:00 14,0 12,0 12,9 18,1 17,2 2 1 6 4 Z 1010,9 18 11 0,0
25.04.2017 08:00:00 11,4 10,8 8,6 18,2 17,2 3 2 9 5 W 1011,2 13 5 0,0
25.04.2017 07:00:00 10,4 9,6 8,2 18,6 17,2 6 4 12 6 ZW 1011,2 10 0 0,0
25.04.2017 06:00:00 10,3 9,4 7,6 18,8 17,2 6 4 11 6 WZW 1011,4 9 0 0,0
25.04.2017 05:00:00 10,4 9,2 7,0 19,0 17,1 4 2 7 4 ZW 1011,9 17 0 0,0
25.04.2017 04:00:00 10,9 9,7 8,7 19,2 17,1 4 2 9 5 WNW 1012,3 18 0 0,0
25.04.2017 03:00:00 11,1 9,5 9,0 19,4 17,1 7 4 9 5 W 1012,8 17 0 0,0
25.04.2017 02:00:00 12,3 10,2 9,9 19,6 17,1 4 2 13 7 WNW 1013,4 33 0 0,0
25.04.2017 01:00:00 13,8 11,7 12,2 19,7 17,1 10 5 16 8 NNW 1013,8 26 0 0,0
25.04.2017 00:00:00 14,1 12,1 12,8 19,9 17,1 10 5 19 10 NNW 1014,2 27 0 0,0
24.04.2017 23:00:00 14,7 12,9 13,7 20,1 17,1 13 7 22 12 N 1014,4 26 0 0,0
24.04.2017 22:00:00 15,0 13,0 14,7 20,1 17,1 14 8 23 12 N 1014,5 32 0 0,0
24.04.2017 21:00:00 15,2 12,7 15,4 20,2 17,1 16 9 25 14 NNO 1014,6 39 0 0,0
24.04.2017 20:00:00 15,7 12,6 16,6 20,1 17,1 16 9 27 15 ONO 1014,9 40 7 0,0
24.04.2017 19:00:00 16,1 12,5 16,8 20,0 17,1 16 9 27 15 O 1015,6 45 17 0,0
24.04.2017 18:00:00 17,9 12,6 21,4 19,7 17,1 18 10 27 15 OZO 1015,6 60 60 0,0
24.04.2017 17:00:00 18,7 12,0 24,7 19,3 17,1 17 9 29 16 OZO 1015,7 38 60 0,0
24.04.2017 16:00:00 19,2 11,2 24,5 18,9 17,1 17 9 28 15 O 1016,1 36 54 0,0
24.04.2017 15:00:00 19,7 12,5 25,0 18,4 17,1 16 8 28 15 O 1016,6 20 32 0,0
24.04.2017 14:00:00 19,2 11,7 26,0 18,1 17,1 14 8 27 14 ONO 1017,1 20 41 0,0
24.04.2017 13:00:00 17,9 10,3 29,3 17,9 17,0 11 6 19 11 NO 1017,9 25 50 0,0
24.04.2017 12:00:00 17,4 10,5 20,2 17,8 17,0 9 5 20 11 NO 1018,2 19 22 0,0
24.04.2017 11:00:00 15,1 9,2 16,8 17,8 17,0 10 6 15 8 NO 1018,5 45 0 0,0
24.04.2017 10:00:00 14,3 8,9 15,7 17,9 17,0 4 2 9 5 ONO 1018,4 26 0 0,0
24.04.2017 09:00:00 13,6 10,2 13,9 17,9 17,0 0 0 5 3 N 1018,2 30 0 0,0
24.04.2017 08:00:00 13,0 10,4 12,3 18,1 17,0 3 1 8 4 ZW 1018,0 20 0 0,0
24.04.2017 07:00:00 12,4 10,1 11,3 18,2 17,0 5 3 12 7 W 1017,4 28 0 0,0
24.04.2017 06:00:00 11,9 10,3 8,1 18,5 17,0 7 4 13 7 WNW 1017,2 28 0 0,0
24.04.2017 05:00:00 10,2 8,6 6,9 18,7 17,0 8 4 11 6 WNW 1017,4 19 0 0,0
24.04.2017 04:00:00 10,7 8,8 7,0 18,9 17,0 5 3 10 5 ZW 1017,2 20 0 0,0
24.04.2017 03:00:00 11,4 9,8 7,4 19,1 17,0 4 2 10 6 WZW 1017,1 20 0 0,0
24.04.2017 02:00:00 12,6 10,0 8,8 19,4 17,0 3 1 13 7 OZO 1017,1 28 0 0,0
24.04.2017 01:00:00 13,6 10,9 9,1 19,6 17,0 8 4 11 6 OZO 1017,1 29 0 0,0
24.04.2017 00:00:00 13,8 10,4 9,2 19,9 16,9 5 3 8 5 OZO 1016,8 32 0 0,0
23.04.2017 23:00:00 16,3 7,0 10,0 20,1 17,0 6 3 13 7 ZZW 1016,5 50 0 0,0
23.04.2017 22:00:00 17,0 7,3 11,5 20,2 17,0 10 5 12 6 W 1016,2 60 0 0,0
23.04.2017 21:00:00 18,7 10,0 13,1 20,2 17,0 4 2 8 4 N 1015,6 55 15 0,0
23.04.2017 20:00:00 20,7 10,5 19,1 20,1 16,9 8 4 11 6 NO 1015,1 57 60 0,0
23.04.2017 19:00:00 22,3 9,1 24,2 20,0 16,9 5 3 13 7 ONO 1015,2 56 60 0,0
23.04.2017 18:00:00 22,1 8,9 27,6 19,7 16,9 9 5 19 10 ONO 1015,3 57 60 0,0
23.04.2017 17:00:00 21,3 8,2 27,5 19,2 16,9 11 6 23 12 O 1015,8 59 60 0,0
23.04.2017 16:00:00 21,3 8,2 27,8 18,7 17,0 14 8 25 14 OZO 1016,4 53 60 0,0
23.04.2017 15:00:00 20,9 6,8 26,6 18,0 16,9 14 8 23 13 ZO 1017,2 52 60 0,0
23.04.2017 14:00:00 20,7 7,0 27,4 17,5 17,0 16 9 25 13 OZO 1017,8 53 60 0,0
23.04.2017 13:00:00 20,3 5,9 30,1 17,1 16,9 13 7 24 13 ZO 1018,4 60 60 0,0
23.04.2017 12:00:00 20,5 6,1 29,1 16,7 16,9 9 5 17 9 ZO 1018,9 60 60 0,0
23.04.2017 11:00:00 19,4 6,5 26,5 16,8 16,9 8 4 13 7 ZO 1019,2 53 60 0,0
23.04.2017 10:00:00 18,4 5,6 19,7 16,8 16,9 3 1 13 7 WZW 1019,4 52 60 0,0
23.04.2017 09:00:00 15,6 6,0 11,2 17,0 16,9 9 5 13 7 W 1019,8 53 60 0,0
23.04.2017 08:00:00 10,6 6,9 7,0 17,2 16,9 7 4 12 7 W 1019,9 55 46 0,0
23.04.2017 07:00:00 8,8 6,8 7,0 17,3 16,9 9 5 20 11 WZW 1019,7 31 0 0,0
23.04.2017 06:00:00 8,7 6,3 4,3 17,6 16,9 14 7 18 10 WZW 1019,6 38 0 0,0
23.04.2017 05:00:00 9,2 7,0 4,2 17,8 16,9 4 2 6 4 W 1019,6 37 0 0,0
23.04.2017 04:00:00 10,5 7,6 5,3 18,1 16,9 7 4 11 6 NNO 1019,3 34 0 0,0
23.04.2017 03:00:00 10,6 5,8 4,5 18,4 16,9 4 2 10 6 N 1019,2 55 0 0,0
23.04.2017 02:00:00 9,8 5,4 5,1 18,5 16,9 4 2 6 3 NO 1019,3 48 0 0,0
23.04.2017 01:00:00 10,4 5,8 6,2 18,8 16,9 5 3 9 5 WNW 1019,3 60 0 0,0
23.04.2017 00:00:00 11,1 6,2 6,7 19,1 16,9 6 4 10 5 WZW 1019,3 48 0 0,0
22.04.2017 23:00:00 11,9 6,6 7,1 19,3 16,9 4 2 7 4 WZW 1019,4 48 0 0,0
22.04.2017 22:00:00 13,5 6,6 8,6 19,5 16,9 5 3 8 4 W 1019,5 60 0 0,0
22.04.2017 21:00:00 16,3 5,6 10,3 19,5 16,9 0 0 2 1 N 1019,3 18 18 0,0
22.04.2017 20:00:00 18,0 5,9 16,3 19,5 16,9 0 0 10 5 N 1019,4 60 60 0,0
22.04.2017 19:00:00 18,6 6,7 20,7 19,3 16,9 7 4 16 9 O 1020,0 57 60 0,0
22.04.2017 18:00:00 19,0 7,1 23,5 19,0 16,9 10 6 19 10 O 1020,6 60 60 0,0
22.04.2017 17:00:00 19,4 7,2 26,5 18,5 16,9 9 5 19 11 OZO 1021,2 53 60 0,0
22.04.2017 16:00:00 19,3 7,1 27,3 18,0 16,9 12 6 23 13 ONO 1022,1 59 60 0,0
22.04.2017 15:00:00 19,3 8,3 26,1 17,4 16,9 12 7 23 12 O 1023,1 59 60 0,0
22.04.2017 14:00:00 18,7 7,8 26,8 16,9 16,9 12 7 26 14 O 1023,7 54 60 0,0
22.04.2017 13:00:00 17,5 7,5 30,2 16,4 16,9 10 6 23 12 ONO 1024,8 57 60 0,0
22.04.2017 12:00:00 17,4 8,0 26,8 16,2 16,9 9 5 17 9 ONO 1025,1 60 60 0,0
22.04.2017 11:00:00 16,3 8,8 24,3 16,1 16,9 8 4 16 9 ONO 1025,5 19 60 0,0
22.04.2017 10:00:00 15,2 8,7 17,1 16,1 16,9 5 3 13 7 N 1025,7 47 60 0,0
22.04.2017 09:00:00 11,4 6,1 9,1 16,2 16,9 4 2 9 5 W 1026,1 46 2 0,0
22.04.2017 08:00:00 8,1 5,4 6,0 16,4 16,9 4 2 11 6 WZW 1025,9 44 0 0,0
22.04.2017 07:00:00 6,5 5,0 2,7 16,7 16,9 9 5 11 6 WZW 1025,8 36 0 0,0
22.04.2017 06:00:00 5,0 2,5 2,1 16,9 16,9 5 3 10 5 W 1025,8 39 0 0,0
22.04.2017 05:00:00 5,0 2,7 1,7 17,2 16,9 6 4 9 5 W 1026,1 44 0 0,0
22.04.2017 04:00:00 6,1 2,4 1,7 17,4 16,9 3 2 9 5 WZW 1026,3 52 0 0,0
22.04.2017 03:00:00 6,2 3,0 2,2 17,7 16,9 0 0 8 5 N 1026,6 52 0 0,0
22.04.2017 02:00:00 6,7 3,3 3,0 18,0 16,9 8 5 13 7 WZW 1026,9 51 0 0,0
22.04.2017 01:00:00 7,7 3,2 3,4 18,3 16,9 4 2 6 3 WZW 1027,2 49 0 0,0
22.04.2017 00:00:00 8,7 3,5 4,0 18,5 16,9 0 0 8 5 N 1027,4 59 0 0,0
21.04.2017 23:00:00 8,9 4,1 6,1 18,8 16,9 9 5 12 6 W 1027,6 58 0 0,0
21.04.2017 22:00:00 11,6 4,6 9,0 18,9 16,9 6 3 14 7 NW 1027,5 60 0 0,0
21.04.2017 21:00:00 13,0 6,1 10,1 18,9 16,9 7 4 11 6 N 1027,4 60 19 0,0
21.04.2017 20:00:00 14,3 6,1 13,7 18,9 16,9 8 5 19 11 O 1027,4 60 60 0,0
21.04.2017 19:00:00 15,1 4,7 16,8 18,7 16,9 14 8 23 13 O 1027,7 46 60 0,0
21.04.2017 18:00:00 15,7 2,5 20,4 18,4 16,9 14 8 22 12 ZO 1027,7 60 60 0,0
21.04.2017 17:00:00 16,4 1,3 23,8 18,0 16,9 14 7 23 13 OZO 1027,8 60 60 0,0
21.04.2017 16:00:00 16,5 1,0 24,4 17,5 16,9 12 7 25 13 OZO 1028,3 58 60 0,0
21.04.2017 15:00:00 16,2 -0,1 23,9 17,0 16,9 13 7 26 14 O 1028,9 60 60 0,0
21.04.2017 14:00:00 16,3 0,8 24,2 16,4 16,9 13 7 26 14 O 1029,3 60 60 0,0
21.04.2017 13:00:00 15,4 -0,4 27,0 16,1 16,9 11 6 24 13 O 1029,7 60 60 0,0
21.04.2017 12:00:00 15,3 -0,9 23,0 15,9 16,9 13 7 24 13 O 1029,7 59 60 0,0
21.04.2017 11:00:00 14,9 0,7 19,6 15,8 16,9 13 7 26 14 O 1029,5 33 60 0,0
21.04.2017 10:00:00 14,0 0,6 17,1 15,8 16,9 7 4 13 7 ZO 1029,2 46 60 0,0
21.04.2017 09:00:00 11,4 0,8 6,5 16,0 16,9 2 1 5 3 Z 1028,7 54 60 0,0
21.04.2017 08:00:00 5,8 -1,4 0,7 16,2 16,9 2 1 8 5 ZZW 1028,2 50 48 0,0
21.04.2017 07:00:00 4,5 -2,2 0,3 16,5 16,9 5 3 11 6 WZW 1027,8 60 0 0,0
21.04.2017 06:00:00 4,1 -1,5 1,4 16,8 17,0 6 3 10 6 W 1027,5 60 0 0,0
21.04.2017 05:00:00 5,1 -3,0 1,0 17,1 16,9 8 5 11 6 WZW 1027,7 60 0 0,0
21.04.2017 04:00:00 5,2 -3,1 1,2 17,3 16,9 8 4 11 6 ZW 1027,8 60 0 0,0
21.04.2017 03:00:00 6,5 -2,2 1,7 17,6 16,9 3 2 11 6 NW 1027,9 60 0 0,0
21.04.2017 02:00:00 8,1 -3,1 1,8 17,9 16,9 8 4 12 7 N 1027,8 60 0 0,0
21.04.2017 01:00:00 7,7 -3,2 1,9 18,2 16,9 5 3 9 5 NW 1027,4 60 0 0,0
21.04.2017 00:00:00 8,4 -2,6 3,6 18,5 16,9 6 4 14 7 ZZW 1026,9 60 0 0,0
20.04.2017 23:00:00 9,1 -1,3 6,0 18,7 16,9 9 5 20 11 ZW 1026,7 60 0 0,0
20.04.2017 22:00:00 8,9 -1,3 4,5 19,0 16,9 13 7 18 10 WZW 1026,5 60 0 0,0
20.04.2017 21:00:00 12,7 -4,0 5,9 19,1 16,9 3 2 8 4 ZZO 1026,1 60 22 0,0
20.04.2017 20:00:00 14,5 -3,8 11,9 19,1 16,9 5 3 16 9 ZZW 1025,6 60 60 0,0
20.04.2017 19:00:00 14,9 -2,5 17,0 19,0 16,9 6 3 20 11 Z 1025,6 50 60 0,0
20.04.2017 18:00:00 15,1 -1,1 19,9 18,7 16,9 13 7 25 14 ZO 1025,8 60 60 0,0
20.04.2017 17:00:00 15,8 -2,7 22,0 18,3 16,9 12 6 27 14 O 1026,3 58 60 0,0
20.04.2017 16:00:00 15,5 -1,1 22,3 17,8 16,9 14 8 28 15 O 1027,0 53 60 0,0
20.04.2017 15:00:00 15,5 -2,5 22,1 17,3 16,9 13 7 22 12 O 1027,3 53 60 0,0
20.04.2017 14:00:00 15,4 -3,5 24,1 16,8 16,9 9 5 24 13 O 1027,4 54 60 0,0
20.04.2017 13:00:00 14,3 -6,0 25,5 16,4 16,9 14 7 25 13 ONO 1028,0 60 60 0,0
20.04.2017 12:00:00 13,8 -6,5 25,3 16,2 16,9 16 8 28 15 O 1028,6 60 60 0,0
20.04.2017 11:00:00 13,1 -8,8 21,7 16,1 16,9 13 7 23 13 NNO 1028,5 60 60 0,0
20.04.2017 10:00:00 11,6 -5,9 14,9 16,2 16,9 9 5 23 13 NW 1028,2 60 60 0,0
20.04.2017 09:00:00 9,7 -4,7 8,0 16,4 16,9 13 7 19 11 NW 1028,1 60 60 0,0
20.04.2017 08:00:00 8,1 -4,7 5,5 16,6 16,9 16 8 30 16 NW 1027,4 41 50 0,0
20.04.2017 07:00:00 7,6 -5,2 4,5 16,9 16,9 20 11 34 18 NNW 1026,6 60 0 0,0
20.04.2017 06:00:00 6,0 -4,5 2,9 17,1 16,9 14 7 20 11 NNW 1026,3 60 0 0,0

tt = temperatuur
td = dauwpunt
tt 5cm = temperatuur 5cm
tt -20cm = temperatuur -20cm
tt -100cm = temperatuur -100cm
ff = windsnelheid
fx = windstoten
dd = windrichting
ppp = luchtdruk
vv = zicht
sd = Zonneschijnduur
rr = neerslag

Weerstations in de omgeving